CW4498 Weather Reports


Display with metric or nautical units.
time (UTC)temp
F
wind
direction
speed
MPH
gust
MPH
rain 1hr
in
rain 24hr
in
rain mn
in
humidity
%
barometer
mb
20190219091508 3 125 2.0 6.0 0.00 0.00 0.00 85 1041.7
20190219090003 3 116 1.0 5.0 0.00 0.00 0.00 85 1041.7
20190219084753 3 124 1.0 5.0 0.00 0.00 0.00 85 1041.4
20190219083233 3 152 1.0 3.0 0.00 0.00 0.00 85 1041.5
20190219081635 3 116 1.0 3.0 0.00 0.00 0.00 85 1042.1
20190219080104 3 137 2.0 5.0 0.00 0.00 0.00 85 1042.3
20190219074613 3 133 2.0 6.0 0.00 0.00 0.00 85 1042.5
20190219073136 2 111 2.0 5.0 0.00 0.00 0.00 85 1042.6
20190219071558 3 109 1.0 3.0 0.00 0.00 0.00 85 1042.7
20190219070130 3 121 2.0 4.0 0.00 0.00 0.00 85 1043.0
20190219064600 3 163 1.0 5.0 0.00 0.00 0.00 85 1043.2
20190219063028 3 122 2.0 7.0 0.00 0.00 0.00 85 1043.2
20190219061537 3 114 2.0 4.0 0.00 0.00 0.00 85 1043.1
20190219060024 3 105 1.0 4.0 0.00 0.00 0.00 85 1043.0
20190219054510 3 111 2.0 6.0 0.00 0.00 0.00 85 1042.9
20190219053002 3 136 2.0 6.0 0.00 0.00 0.00 85 1042.9
20190219051726 3 146 2.0 7.0 0.00 0.00 0.00 85 1043.0
20190219050240 3 156 1.0 5.0 0.00 0.00 0.00 85 1043.1
20190219044626 3 161 2.0 5.0 0.00 0.00 0.00 85 1043.1
20190219043109 3 150 3.0 8.0 0.00 0.00 0.00 85 1043.0
20190219041725 3 99 0.0 3.0 0.00 0.00 0.00 85 1043.0
20190219040103 3 145 2.0 5.0 0.00 0.00 0.00 85 1042.7
20190219034609 3 134 1.0 7.0 0.00 0.00 0.00 85 1042.7
20190219033042 3 129 2.0 8.0 0.00 0.00 0.00 85 1042.8
20190219031544 3 142 2.0 8.0 0.00 0.00 0.00 85 1042.8
20190219030040 3 104 2.0 6.0 0.00 0.00 0.00 85 1042.8
20190219024522 4 140 2.0 7.0 0.00 0.00 0.00 85 1042.7
20190219023015 4 71 3.0 8.0 0.00 0.00 0.00 85 1042.8
20190219021511 4 118 2.0 9.0 0.00 0.00 0.00 85 1042.4
20190219020001 4 128 3.0 7.0 0.00 0.00 0.00 85 1042.0
20190219014640 4 112 4.0 8.0 0.00 0.00 0.00 85 1041.7
20190219013203 4 126 2.0 8.0 0.00 0.00 0.00 85 1041.7
20190219011634 4 132 4.0 8.0 0.00 0.00 0.00 85 1041.5
20190219010129 5 112 4.0 9.0 0.00 0.00 0.00 85 1041.4
20190219004632 5 132 1.0 4.0 0.00 0.00 0.00 85 1041.3
20190219003050 5 148 2.0 7.0 0.00 0.00 0.00 85 1041.2
20190219001625 5 128 4.0 9.0 0.00 0.00 0.00 85 1041.0
20190219000053 6 121 4.0 8.0 0.00 0.00 0.00 85 1040.7
20190218234632 6 138 2.0 8.0 0.00 0.00 0.00 85 1040.5
20190218233107 7 126 3.0 8.0 0.00 0.00 0.00 84 1040.6
20190218231530 7 118 3.0 10.0 0.00 0.00 0.00 84 1040.4
20190218230022 7 119 4.0 9.0 0.00 0.00 0.00 84 1040.2
20190218224513 8 136 3.0 9.0 0.00 0.00 0.00 84 1040.1
20190218223217 8 122 4.0 10.0 0.00 0.00 0.00 84 1040.0
20190218221643 8 138 6.0 11.0 0.00 0.00 0.00 84 1039.6
20190218220243 9 111 6.0 10.0 0.00 0.00 0.00 83 1039.4
20190218214606 9 117 5.0 11.0 0.00 0.00 0.00 84 1039.4
20190218213109 9 114 5.0 11.0 0.00 0.00 0.00 83 1039.3
20190218211619 9 120 4.0 11.0 0.00 0.00 0.00 83 1039.2
20190218210141 10 97 4.0 13.0 0.00 0.00 0.00 82 1039.3
20190218204548 9 137 6.0 13.0 0.00 0.00 0.00 81 1039.3
20190218203037 9 135 5.0 9.0 0.00 0.00 0.00 80 1039.2
20190218201538 9 141 5.0 10.0 0.00 0.00 0.00 81 1039.1
20190218200023 9 142 5.0 10.0 0.00 0.00 0.00 82 1039.2
20190218194526 9 123 6.0 13.0 0.00 0.00 0.00 82 1039.4
20190218193020 8 159 5.0 13.0 0.00 0.00 0.00 82 1039.5
20190218191504 8 112 5.0 10.0 0.00 0.00 0.00 82 1039.5
20190218190157 9 117 6.0 11.0 0.00 0.00 0.00 81 1039.6
20190218184659 8 196 3.0 9.0 0.00 0.00 0.00 82 1039.7
20190218183120 7 117 3.0 10.0 0.00 0.00 0.00 81 1039.7
20190218181633 7 138 3.0 8.0 0.00 0.00 0.00 79 1040.0
20190218180126 7 175 1.0 7.0 0.00 0.00 0.00 80 1039.9
20190218174608 7 137 3.0 7.0 0.00 0.00 0.00 78 1040.1
20190218173106 6 148 3.0 7.0 0.00 0.00 0.00 80 1040.3
20190218171613 6 117 2.0 6.0 0.00 0.00 0.00 81 1040.2
20190218170054 5 114 2.0 8.0 0.00 0.00 0.00 83 1040.1
20190218164557 6 96 3.0 7.0 0.00 0.00 0.00 82 1040.1
20190218163058 5 199 1.0 8.0 0.00 0.00 0.00 83 1040.2
20190218161514 3 143 3.0 6.0 0.00 0.00 0.00 83 1040.1
20190218160010 3 107 3.0 6.0 0.00 0.00 0.00 83 1040.2
20190218154502 3 109 4.0 8.0 0.00 0.00 0.00 84 1039.9
20190218153151 2 142 3.0 5.0 0.00 0.00 0.00 83 1039.8
20190218151656 2 118 2.0 8.0 0.00 0.00 0.00 84 1039.7
20190218150225 2 121 3.0 7.0 0.00 0.00 0.00 84 1039.5
20190218144608 2 267 1.0 7.0 0.00 0.00 0.00 84 1039.3
20190218143101 2 108 2.0 8.0 0.00 0.00 0.00 84 1039.0
20190218141638 2 133 2.0 7.0 0.00 0.00 0.00 84 1038.8
20190218140130 2 136 2.0 5.0 0.00 0.00 0.00 84 1038.5
20190218134558 3 141 3.0 6.0 0.00 0.00 0.00 84 1038.4
20190218133033 3 118 1.0 6.0 0.00 0.00 0.00 85 1038.3
20190218131528 3 149 2.0 7.0 0.00 0.00 0.00 85 1038.0
20190218130101 3 107 1.0 7.0 0.00 0.00 0.00 85 1037.9
20190218124515 3 103 3.0 7.0 0.00 0.00 0.00 84 1037.8
20190218123010 4 129 2.0 6.0 0.00 0.00 0.00 85 1037.7
20190218121504 4 149 1.0 5.0 0.00 0.00 0.00 85 1037.7
20190218120215 4 128 2.0 5.0 0.00 0.00 0.00 85 1037.6
20190218114638 4 124 2.0 4.0 0.00 0.00 0.00 85 1037.5
20190218113134 4 129 1.0 3.0 0.00 0.00 0.00 85 1037.3
20190218111646 5 111 1.0 5.0 0.00 0.00 0.00 85 1037.1
20190218110109 5 115 2.0 7.0 0.00 0.00 0.00 85 1036.8
20190218104544 5 113 1.0 5.0 0.00 0.00 0.00 85 1036.7
20190218103056 6 140 2.0 7.0 0.00 0.00 0.00 86 1036.5
20190218101552 6 137 4.0 9.0 0.00 0.00 0.00 85 1036.2
20190218100039 6 130 2.0 5.0 0.00 0.00 0.00 86 1036.0
20190218094620 6 149 1.0 5.0 0.00 0.00 0.00 85 1036.0
20190218093038 7 134 2.0 6.0 0.00 0.00 0.00 85 1036.0